KD8OZS Weather Reports


Display with metric or nautical units.
time (UTC)temp
F
wind
direction
speed
MPH
gust
MPH
rain 1hr
in
rain 24hr
in
rain mn
in
humidity
%
barometer
mb
20260505085853 63 229 2.0 2.0 0.00 0.01 0.01 71 997.9
20260505085351 63 226 3.0 3.0 0.00 0.01 0.01 70 998.0
20260505084849 63 240 1.0 2.0 0.00 0.01 0.01 71 998.1
20260505084347 63 247 2.0 2.0 0.00 0.01 0.01 70 998.0
20260505083845 63 241 3.0 3.0 0.00 0.01 0.01 71 997.8
20260505083342 64 246 1.0 1.0 0.00 0.01 0.01 71 997.9
20260505082838 63 217 4.0 6.0 0.00 0.01 0.01 72 997.5
20260505082334 63 245 3.0 3.0 0.00 0.01 0.01 72 997.7
20260505081831 63 247 1.0 1.0 0.00 0.01 0.01 74 997.7
20260505081328 63 228 2.0 3.0 0.00 0.01 0.01 74 997.5
20260505080825 64 232 3.0 6.0 0.00 0.01 0.01 73 997.9
20260505080320 64 282 3.0 5.0 0.05 0.01 0.01 71 997.8
20260505075816 65 217 5.0 7.0 0.05 0.01 0.01 68 997.6
20260505075313 64 216 3.0 3.0 0.00 0.00 0.00 70 997.5
20260505074810 64 252 1.0 2.0 0.00 0.00 0.00 73 997.5
20260505074307 64 239 1.0 1.0 0.00 0.00 0.00 72 997.5
20260505073805 65 254 4.0 5.0 0.00 0.00 0.00 70 997.1
20260505073303 65 230 3.0 3.0 0.00 0.00 0.00 67 997.3
20260505072800 65 250 2.0 3.0 0.00 0.00 0.00 68 997.1
20260505072255 65 238 1.0 1.0 0.00 0.00 0.00 69 997.3
20260505071751 65 252 1.0 1.0 0.00 0.00 0.00 69 997.0
20260505071248 65 234 1.0 1.0 0.00 0.00 0.00 68 997.0
20260505070746 65 234 2.0 2.0 0.00 0.00 0.00 66 997.0
20260505070242 65 45 2.0 2.0 0.00 0.00 0.00 67 996.8
20260505065738 65 242 0.0 0.0 0.00 0.00 0.00 66 997.1
20260505065235 65 251 1.0 1.0 0.00 0.00 0.00 66 997.0
20260505064732 65 254 1.0 1.0 0.00 0.00 0.00 66 997.0
20260505064229 65 227 1.0 2.0 0.00 0.00 0.00 66 996.9
20260505063727 66 227 0.0 0.0 0.00 0.00 0.00 66 997.3
20260505063223 65 230 3.0 3.0 0.00 0.00 0.00 66 997.0
20260505062719 66 235 1.0 2.0 0.00 0.00 0.00 66 997.1
20260505062217 65 214 4.0 6.0 0.00 0.00 0.00 66 997.0
20260505061714 65 250 1.0 1.0 0.00 0.00 0.00 68 997.1
20260505061212 65 224 1.0 1.0 0.00 0.00 0.00 67 997.4
20260505060709 65 253 1.0 2.0 0.00 0.00 0.00 67 997.5
20260505060206 65 249 1.0 1.0 0.00 0.00 0.00 68 997.4
20260505055701 65 227 1.0 2.0 0.00 0.00 0.00 66 997.6
20260505055158 65 247 2.0 2.0 0.00 0.00 0.00 67 997.3
20260505054655 66 232 1.0 2.0 0.00 0.00 0.00 67 997.4
20260505054153 65 242 0.0 1.0 0.00 0.00 0.00 67 997.5
20260505053650 66 236 0.0 0.0 0.00 0.00 0.00 67 997.8
20260505053147 66 240 0.0 1.0 0.00 0.00 0.00 66 997.7
20260505052644 66 239 1.0 1.0 0.00 0.00 0.00 67 997.7
20260505052141 66 240 2.0 2.0 0.00 0.00 0.00 68 997.8
20260505051637 66 252 1.0 1.0 0.00 0.00 0.00 67 997.8
20260505051136 66 261 5.0 7.0 0.00 0.00 0.00 68 997.9
20260505050633 66 229 0.0 0.0 0.00 0.00 0.00 68 997.9
20260505050132 66 231 2.0 2.0 0.00 0.00 0.00 68 998.1
20260505041601 66 245 0.0 0.0 0.00 0.00 0.00 68 998.3
20260505041059 65 241 1.0 1.0 0.00 0.00 0.00 68 998.1
20260505040556 65 238 1.0 1.0 0.00 0.00 0.00 69 998.1
20260505040053 65 239 0.0 0.0 0.00 0.00 0.00 69 998.1
20260505035549 65 235 1.0 1.0 0.00 0.00 0.00 70 998.1
20260505035046 65 239 0.0 1.0 0.00 0.00 0.00 70 998.1
20260505034542 65 192 2.0 3.0 0.00 0.00 0.00 69 998.1
20260505034039 65 225 1.0 1.0 0.00 0.00 0.00 69 998.0
20260505033536 65 239 0.0 1.0 0.00 0.00 0.00 69 998.1
20260505033034 65 233 0.0 1.0 0.00 0.00 0.00 70 998.2
20260505032532 65 262 1.0 2.0 0.00 0.00 0.00 69 998.2
20260505032028 65 217 1.0 2.0 0.00 0.00 0.00 69 998.0
20260505031526 65 241 0.0 1.0 0.00 0.00 0.00 69 998.3
20260505031022 65 230 1.0 1.0 0.00 0.00 0.00 69 998.2
20260505030519 65 238 0.0 1.0 0.00 0.00 0.00 69 998.2
20260505030015 65 220 2.0 2.0 0.00 0.00 0.00 69 998.1
20260505025511 65 237 1.0 1.0 0.00 0.00 0.00 69 998.4
20260505025010 65 261 1.0 2.0 0.00 0.00 0.00 69 998.3
20260505024506 65 235 0.0 1.0 0.00 0.00 0.00 69 998.1
20260505024004 65 202 6.0 11.0 0.00 0.00 0.00 69 998.2
20260505023500 65 222 1.0 1.0 0.00 0.00 0.00 69 998.2
20260505022958 65 119 5.0 6.0 0.00 0.00 0.00 70 998.5
20260505022455 65 245 1.0 1.0 0.00 0.00 0.00 69 998.5
20260505021952 65 237 0.0 1.0 0.00 0.00 0.00 70 998.3
20260505021449 65 251 0.0 1.0 0.00 0.00 0.00 69 998.4
20260505020944 65 230 0.0 1.0 0.00 0.00 0.00 69 998.2
20260505020440 65 235 1.0 1.0 0.00 0.00 0.00 69 998.0
20260505015937 65 102 4.0 5.0 0.00 0.00 0.00 69 998.3
20260505015434 65 239 1.0 1.0 0.00 0.00 0.00 69 998.3
20260505014931 65 224 2.0 2.0 0.00 0.00 0.00 69 998.4
20260505014428 65 238 0.0 1.0 0.00 0.00 0.00 69 998.3
20260505013925 65 235 0.0 1.0 0.00 0.00 0.00 68 998.2
20260505013422 65 262 0.0 1.0 0.00 0.00 0.00 68 998.5
20260505012920 65 184 2.0 2.0 0.00 0.00 0.00 68 998.3
20260505012418 65 235 0.0 0.0 0.00 0.00 0.00 68 998.2
20260505011914 65 229 1.0 2.0 0.00 0.00 0.00 67 998.3
20260505011410 65 238 0.0 0.0 0.00 0.00 0.00 67 998.2
20260505010907 65 226 1.0 1.0 0.00 0.00 0.00 67 998.1
20260505010403 66 244 0.0 0.0 0.00 0.00 0.00 66 998.1
20260505005859 66 236 1.0 1.0 0.00 0.00 0.00 65 998.1
20260505005356 66 239 1.0 1.0 0.00 0.00 0.00 64 998.2
20260505004854 66 236 1.0 1.0 0.00 0.00 0.00 64 998.0
20260505004349 66 242 0.0 0.0 0.00 0.00 0.00 63 998.0
20260505003847 66 230 1.0 1.0 0.00 0.00 0.00 63 997.7
20260505003344 66 237 1.0 1.0 0.00 0.00 0.00 63 998.0
20260505002840 66 237 0.0 1.0 0.00 0.00 0.00 62 998.1
20260505002337 67 237 0.0 1.0 0.00 0.00 0.00 63 998.2
20260505001836 67 234 1.0 1.0 0.00 0.00 0.00 62 998.0
20260505001332 67 243 0.0 0.0 0.00 0.00 0.00 61 997.9
20260505000829 68 237 2.0 2.0 0.00 0.00 0.00 60 997.9
20260505000327 68 244 0.0 0.0 0.00 0.00 0.00 60 998.1
20260504235824 68 242 2.0 2.0 0.00 0.00 0.00 60 998.0
20260504235321 68 240 2.0 3.0 0.00 0.00 0.00 59 997.8
20260504234817 69 235 2.0 3.0 0.00 0.00 0.00 58 997.7
20260504234315 69 256 2.0 2.0 0.00 0.00 0.00 58 997.9
20260504233811 69 260 1.0 1.0 0.00 0.00 0.00 56 997.8
20260504233307 70 234 1.0 2.0 0.00 0.00 0.00 55 997.6
20260504232804 70 245 3.0 5.0 0.00 0.00 0.00 54 997.6
20260504232303 70 240 2.0 2.0 0.00 0.00 0.00 54 997.3
20260504231758 71 328 1.0 1.0 0.00 0.00 0.00 54 997.4
20260504231254 71 216 1.0 1.0 0.00 0.00 0.00 55 997.5
20260504230750 70 312 2.0 2.0 0.00 0.00 0.00 56 997.5
20260504230248 70 245 2.0 2.0 0.00 0.00 0.00 54 997.4
20260504225747 71 240 1.0 1.0 0.00 0.00 0.00 54 997.6
20260504225243 72 242 2.0 2.0 0.00 0.00 0.00 53 997.7
20260504224740 72 234 5.0 6.0 0.00 0.00 0.00 53 997.8
20260504224238 72 240 1.0 1.0 0.00 0.00 0.00 54 997.8
20260504223734 71 220 3.0 3.0 0.00 0.00 0.00 54 998.0
20260504223229 71 225 3.0 5.0 0.00 0.00 0.00 55 998.1
20260504222727 71 246 2.0 3.0 0.00 0.00 0.00 53 997.9
20260504222223 71 272 1.0 1.0 0.00 0.00 0.00 53 997.9
20260504221721 72 213 5.0 7.0 0.00 0.00 0.00 54 998.0
20260504221218 71 236 3.0 5.0 0.00 0.00 0.00 53 997.9
20260504220714 71 244 3.0 3.0 0.00 0.00 0.00 54 997.9
20260504220212 71 229 3.0 3.0 0.00 0.00 0.00 54 998.0
20260504215709 72 232 1.0 2.0 0.00 0.00 0.00 54 997.9
20260504215206 71 222 4.0 7.0 0.00 0.00 0.00 54 998.0
20260504214701 71 262 4.0 6.0 0.00 0.00 0.00 54 998.1
20260504214158 72 282 3.0 5.0 0.00 0.00 0.00 54 997.9
20260504213655 73 207 2.0 3.0 0.00 0.00 0.00 54 997.9
20260504213151 73 242 7.0 9.0 0.00 0.00 0.00 52 998.1
20260504212648 73 227 5.0 6.0 0.00 0.00 0.00 53 998.0
20260504212144 72 246 1.0 2.0 0.00 0.00 0.00 54 998.1
20260504211642 73 213 3.0 6.0 0.00 0.00 0.00 55 998.0
20260504211138 73 243 3.0 3.0 0.00 0.00 0.00 54 997.7
20260504210636 74 244 3.0 5.0 0.00 0.00 0.00 51 997.8
20260504210132 73 240 2.0 3.0 0.00 0.00 0.00 52 998.0
20260504205630 73 242 2.0 3.0 0.00 0.00 0.00 53 998.3
20260504205127 73 213 1.0 2.0 0.00 0.00 0.00 53 998.0
20260504204626 72 236 1.0 2.0 0.00 0.00 0.00 55 998.3
20260504204124 71 238 1.0 1.0 0.00 0.00 0.00 55 998.4
20260504203622 72 237 3.0 3.0 0.00 0.00 0.00 55 998.4
20260504203120 73 251 2.0 3.0 0.00 0.00 0.00 53 998.3
20260504202614 74 212 4.0 5.0 0.00 0.00 0.00 53 998.2
20260504202111 73 209 3.0 7.0 0.00 0.00 0.00 52 998.4
20260504201608 72 138 3.0 7.0 0.00 0.00 0.00 54 998.6
20260504201106 72 224 3.0 3.0 0.00 0.00 0.00 54 998.4
20260504200603 72 233 1.0 1.0 0.00 0.00 0.00 54 998.7
20260504200059 72 223 3.0 5.0 0.00 0.00 0.00 54 998.6
20260504195555 72 250 1.0 2.0 0.00 0.00 0.00 56 998.6
20260504195052 73 223 2.0 3.0 0.00 0.00 0.00 53 998.5
20260504194549 73 236 2.0 2.0 0.00 0.00 0.00 53 998.5
20260504194044 74 227 1.0 3.0 0.00 0.00 0.00 52 998.5
20260504193541 74 216 7.0 10.0 0.00 0.00 0.00 52 998.6
20260504193039 72 255 2.0 2.0 0.00 0.00 0.00 55 998.9
20260504192537 74 245 7.0 10.0 0.00 0.00 0.00 53 998.6
20260504192035 74 136 4.0 7.0 0.00 0.00 0.00 52 998.8
20260504191533 74 261 1.0 2.0 0.00 0.00 0.00 53 998.9
20260504191029 73 255 3.0 3.0 0.00 0.00 0.00 56 998.8
20260504190525 73 242 3.0 5.0 0.00 0.00 0.00 52 998.9
20260504190021 72 245 4.0 6.0 0.00 0.00 0.00 54 998.9
20260504185518 72 244 1.0 2.0 0.00 0.00 0.00 56 999.0
20260504185015 73 198 3.0 5.0 0.00 0.00 0.00 53 999.1
20260504184510 71 179 2.0 3.0 0.00 0.00 0.00 56 999.2
20260504184006 71 232 2.0 2.0 0.00 0.00 0.00 57 999.3
20260504183503 72 240 1.0 1.0 0.00 0.00 0.00 56 999.5
20260504183002 72 235 2.0 2.0 0.00 0.00 0.00 55 999.6
20260504182458 70 222 3.0 3.0 0.00 0.00 0.00 57 999.5
20260504181955 70 223 5.0 9.0 0.00 0.00 0.00 56 999.8
20260504181452 70 231 3.0 6.0 0.00 0.00 0.00 57 999.6
20260504180950 70 224 3.0 5.0 0.00 0.00 0.00 56 999.6
20260504180449 69 223 5.0 7.0 0.00 0.00 0.00 56 999.5
20260504175947 69 223 1.0 2.0 0.00 0.00 0.00 58 999.7
20260504175444 69 228 4.0 5.0 0.00 0.00 0.00 56 999.7
20260504174941 70 239 2.0 2.0 0.00 0.00 0.00 58 999.5
20260504174439 68 206 2.0 2.0 0.00 0.00 0.00 58 999.8
20260504173936 69 239 4.0 5.0 0.00 0.00 0.00 57 999.6
20260504173432 68 239 3.0 3.0 0.00 0.00 0.00 59 999.9
20260504172930 69 138 2.0 2.0 0.00 0.00 0.00 58 999.8
20260504172426 69 244 2.0 2.0 0.00 0.00 0.00 59 1000.1
20260504171922 69 218 3.0 5.0 0.00 0.00 0.00 59 999.9
20260504171420 68 237 1.0 2.0 0.00 0.00 0.00 58 999.8
20260504170917 68 241 3.0 3.0 0.00 0.00 0.00 57 1000.0
20260504170413 69 236 3.0 3.0 0.00 0.00 0.00 56 1000.2
20260504160332 66 203 2.0 3.0 0.00 0.00 0.00 55 1000.7
20260504150756 65 229 3.0 5.0 0.00 0.00 0.00 56 1001.0
20260504150253 64 218 1.0 1.0 0.00 0.00 0.00 59 1000.9
20260504141223 61 179 1.0 1.0 0.00 0.00 0.00 58 1001.1
20260504140720 61 223 2.0 3.0 0.00 0.00 0.00 58 1001.1
20260504140215 61 241 1.0 1.0 0.00 0.00 0.00 58 1001.1
20260504130643 59 219 3.0 3.0 0.00 0.00 0.00 61 1001.7
20260504130140 58 207 2.0 3.0 0.00 0.00 0.00 60 1001.6
20260504120104 54 226 2.0 3.0 0.00 0.00 0.00 65 1001.7
20260504110532 50 238 0.0 1.0 0.00 0.00 0.00 71 1001.4
20260504100448 48 239 0.0 0.0 0.00 0.00 0.00 73 1001.6